Weather History for KXSA - November, 2013

Change the Weather History Date:

Wednesday, November 6, 2013

  Actual Average (KRIC) Record (KRIC)
Temperature  
Mean Temperature 56 °F 54 °F  
Max Temperature 71 °F 65 °F 81 °F (1975)
Min Temperature 43 °F 42 °F 22 °F (1967)
Degree Days  
Heating Degree Days 8 12  
Month to date heating degree days 67  
Since 1 July heating degree days 300  
Cooling Degree Days 0 0  
Month to date cooling degree days 0  
Year to date cooling degree days 1543  
Growing Degree Days 6 (Base 50)    
Moisture  
Dew Point 50 °F    
Average Humidity 77    
Maximum Humidity 100    
Minimum Humidity 47    
Precipitation  
Precipitation 0.00 in 0.11 in 2.71 in (1959)
Month to date precipitation 0.66  
Year to date precipitation 37.76  
Snow  
Snow 0.00 in 0.00 in 7.20 in (1953)
Month to date snowfall 0.0  
Since 1 July snowfall 0.0  
Snow Depth -    
Sea Level Pressure  
Sea Level Pressure 30.30 in    
Wind  
Wind Speed 1 mph (SE)    
Max Wind Speed 8 mph    
Max Gust Speed -    
Visibility 9 miles    
Events Fog    
T = Trace of Precipitation, MM = Missing Value Source: NWS Daily Summary

Daily Weather History Graph

Daily Weather History Graph

Search for Another Location

Airport or City:

Trip Planner

Search our weather history database for the weather conditions in past years. The results will help you decide how hot, cold, wet, or windy it might be!

Date:

Astronomy

Nov. 06, 2013 Rise Set
Actual Time 6:38 AM EST 5:03 PM EST
Civil Twilight 6:11 AM EST 5:30 PM EST
Nautical Twilight 5:39 AM EST 6:02 PM EST
Astronomical Twilight 5:08 AM EST 6:32 PM EST
Moon 9:50 AM EST (11/6) 8:06 PM EST (11/6)
Length of Visible Light 11h 19m
Length of Day
10h 24m
Waxing Crescent, 13% of the Moon is Illuminated
Nov 6
Waxing Crescent
Nov 10
First Quarter
Nov 17
Full
Nov 25
Last Quarter
Dec 2
New

Hourly Weather History & Observations

Time (EST) Temp. Dew Point Humidity Pressure Visibility Wind Dir Wind Speed Gust Speed Precip Events Conditions
12:15 AM 50.0 °F 48.4 °F 94% 30.47 in 10.0 mi Calm Calm - N/A   Overcast
12:35 AM 50.0 °F 48.4 °F 94% 30.47 in 10.0 mi Calm Calm - N/A   Overcast
12:55 AM 50.5 °F 48.7 °F 94% 30.46 in 10.0 mi Calm Calm - N/A   Overcast
1:15 AM 51.1 °F 49.1 °F 93% 30.46 in 10.0 mi Calm Calm - N/A   Overcast
1:35 AM 51.6 °F 49.1 °F 91% 30.45 in 10.0 mi East 3.5 mph - N/A   Overcast
1:55 AM 50.9 °F 49.1 °F 94% 30.45 in 10.0 mi Calm Calm - N/A   Overcast
2:15 AM 51.4 °F 48.6 °F 90% 30.44 in 10.0 mi Calm Calm - N/A   Overcast
2:35 AM 51.8 °F 49.1 °F 90% 30.44 in 10.0 mi Calm Calm - N/A   Overcast
2:55 AM 51.1 °F 49.1 °F 93% 30.42 in 10.0 mi Calm Calm - N/A   Overcast
3:15 AM 51.8 °F 49.1 °F 90% 30.41 in 10.0 mi East 3.5 mph - N/A   Overcast
3:35 AM 52.2 °F 49.3 °F 90% 30.41 in 10.0 mi East 3.5 mph - N/A   Overcast
3:55 AM 52.2 °F 49.5 °F 91% 30.40 in 10.0 mi Calm Calm - N/A   Overcast
4:15 AM 50.5 °F 48.0 °F 91% 30.41 in 10.0 mi Calm Calm - N/A   Overcast
4:35 AM 49.3 °F 47.7 °F 94% 30.40 in 10.0 mi Calm Calm - N/A   Overcast
4:55 AM 48.4 °F 47.3 °F 96% 30.40 in 10.0 mi Calm Calm - N/A   Scattered Clouds
5:15 AM 47.3 °F 46.4 °F 97% 30.39 in 4.0 mi Calm Calm - N/A   Clear
5:35 AM 46.2 °F 45.7 °F 98% 30.40 in 2.5 mi Calm Calm - N/A   Clear
5:55 AM 45.7 °F 45.3 °F 99% 30.39 in 0.5 mi Calm Calm - N/A Fog Fog
6:15 AM 44.1 °F 43.7 °F 99% 30.39 in 1.2 mi Calm Calm - N/A   Mist
6:35 AM 43.7 °F 43.3 °F 99% 30.39 in 5.0 mi Calm Calm - N/A   Clear
6:55 AM 44.2 °F 43.9 °F 99% 30.39 in 5.0 mi Calm Calm - N/A   Clear
7:15 AM 44.6 °F 44.6 °F 100% 30.39 in 7.0 mi Calm Calm - N/A   Clear
7:35 AM 45.9 °F 45.9 °F 100% 30.39 in 10.0 mi Calm Calm - N/A   Clear
7:55 AM 49.3 °F 49.3 °F 100% 30.39 in 10.0 mi Calm Calm - N/A   Scattered Clouds
8:15 AM 50.4 °F 50.4 °F 100% 30.39 in 10.0 mi Calm Calm - N/A   Mostly Cloudy
8:35 AM 51.8 °F 50.9 °F 97% 30.39 in 10.0 mi Calm Calm - N/A   Overcast
8:55 AM 53.6 °F 50.2 °F 88% 30.39 in 10.0 mi Calm Calm - N/A   Scattered Clouds
9:15 AM 56.3 °F 51.1 °F 83% 30.38 in 10.0 mi Calm Calm - N/A   Clear
9:35 AM 57.7 °F 51.4 °F 79% 30.38 in 10.0 mi Calm Calm - N/A   Clear
9:55 AM 60.1 °F 51.3 °F 73% 30.37 in 10.0 mi Calm Calm - N/A   Clear
10:15 AM 61.5 °F 51.4 °F 69% 30.37 in 10.0 mi Calm Calm - N/A   Clear
10:35 AM 62.8 °F 51.8 °F 67% 30.37 in 10.0 mi Calm Calm - N/A   Clear
10:55 AM 64.6 °F 51.6 °F 63% 30.36 in 7.0 mi Calm Calm - N/A   Clear
11:15 AM 66.7 °F 50.7 °F 56% 30.34 in 4.0 mi ENE 3.5 mph - N/A   Haze
11:35 AM 67.6 °F 50.0 °F 53% 30.33 in 10.0 mi Calm Calm - N/A   Scattered Clouds
11:55 AM 68.5 °F 50.4 °F 52% 30.33 in 10.0 mi South 6.9 mph - N/A   Scattered Clouds
12:15 PM 68.7 °F 49.8 °F 51% 30.31 in 10.0 mi SSE 5.8 mph - N/A   Mostly Cloudy
12:35 PM 69.3 °F 50.2 °F 51% 30.30 in 10.0 mi South 4.6 mph - N/A   Scattered Clouds
12:55 PM 68.0 °F 50.7 °F 54% 30.29 in 10.0 mi SE 4.6 mph - N/A   Clear
1:15 PM 69.8 °F 50.9 °F 51% 30.28 in 10.0 mi SE 4.6 mph - N/A   Clear
1:35 PM 70.0 °F 50.0 °F 49% 30.27 in 10.0 mi SE 3.5 mph - N/A   Scattered Clouds
1:55 PM 70.2 °F 50.0 °F 49% 30.26 in 10.0 mi South 5.8 mph - N/A   Scattered Clouds
2:15 PM 70.9 °F 49.5 °F 47% 30.26 in 1.5 mi SE 6.9 mph - N/A   Haze
2:35 PM 69.8 °F 48.9 °F 47% 30.26 in 10.0 mi SE 8.1 mph - N/A   Clear
2:55 PM 68.7 °F 50.0 °F 51% 30.25 in 7.0 mi SSE 5.8 mph - N/A   Mostly Cloudy
3:15 PM 69.1 °F 50.2 °F 51% 30.25 in 4.0 mi SSE 4.6 mph - N/A   Haze
3:35 PM 67.8 °F 49.5 °F 52% 30.24 in 2.5 mi SSE 6.9 mph - N/A   Haze
3:55 PM 67.8 °F 50.0 °F 53% 30.24 in 10.0 mi SSE 5.8 mph - N/A   Clear
4:15 PM 65.7 °F 50.4 °F 58% 30.23 in 10.0 mi SE 5.8 mph - N/A   Clear
4:35 PM 65.1 °F 50.9 °F 60% 30.22 in 10.0 mi SE 4.6 mph - N/A   Mostly Cloudy
4:55 PM 64.0 °F 50.9 °F 62% 30.22 in 10.0 mi SSE 3.5 mph - N/A   Scattered Clouds
5:15 PM 63.5 °F 50.5 °F 63% 30.22 in 10.0 mi SSE 3.5 mph - N/A   Mostly Cloudy
5:35 PM 62.8 °F 50.5 °F 64% 30.21 in 10.0 mi SE 3.5 mph - N/A   Overcast
5:55 PM 61.9 °F 50.9 °F 67% 30.22 in 10.0 mi Calm Calm - N/A   Overcast
6:15 PM 61.7 °F 51.3 °F 69% 30.22 in 10.0 mi Calm Calm - N/A   Overcast
6:35 PM 61.3 °F 51.1 °F 69% 30.21 in 10.0 mi SE 4.6 mph - N/A   Overcast
6:55 PM 61.3 °F 50.2 °F 67% 30.21 in 10.0 mi SE 4.6 mph - N/A   Overcast
7:15 PM 61.2 °F 49.8 °F 66% 30.20 in 10.0 mi SE 3.5 mph - N/A   Overcast
7:35 PM 61.0 °F 49.6 °F 66% 30.19 in 10.0 mi SE 4.6 mph - N/A   Overcast
7:55 PM 60.4 °F 50.2 °F 69% 30.18 in 10.0 mi SE 3.5 mph - N/A   Overcast
8:15 PM 60.3 °F 50.9 °F 71% 30.18 in 10.0 mi SSE 3.5 mph - N/A   Overcast
8:35 PM 59.9 °F 52.2 °F 76% 30.18 in 10.0 mi Calm Calm - N/A   Overcast
8:55 PM 59.5 °F 52.7 °F 78% 30.18 in 10.0 mi Calm Calm - N/A   Overcast
9:15 PM 59.2 °F 52.7 °F 79% 30.17 in 10.0 mi SSE 3.5 mph - N/A   Overcast
9:35 PM 59.0 °F 52.9 °F 80% 30.16 in 10.0 mi SE 3.5 mph - N/A   Overcast
9:55 PM 59.4 °F 54.0 °F 82% 30.16 in 10.0 mi SSE 3.5 mph - N/A   Overcast
10:15 PM 59.0 °F 54.3 °F 84% 30.15 in 10.0 mi SSE 3.5 mph - N/A   Scattered Clouds
10:35 PM 58.1 °F 54.5 °F 88% 30.14 in 10.0 mi Calm Calm - N/A   Clear
10:55 PM 57.2 °F 54.9 °F 92% 30.13 in 10.0 mi Calm Calm - N/A   Clear
11:15 PM 56.8 °F 54.9 °F 93% 30.12 in 10.0 mi Calm Calm - N/A   Clear
11:35 PM 56.1 °F 54.5 °F 94% 30.11 in 10.0 mi SSE 3.5 mph - N/A   Clear
11:55 PM 56.5 °F 54.7 °F 94% 30.11 in 10.0 mi Calm Calm - N/A   Clear